Change the Weather History Date:

Tuesday, July 23, 2013

  Actual Average (KDBN) Record (KDBN)
Temperature  
Mean Temperature 79 °F -  
Max Temperature 87 °F 94 °F 105 °F (1983)
Min Temperature 71 °F 69 °F 60 °F (2007)
Cooling Degree Days 14    
Growing Degree Days 29 (Base 50)    
Moisture  
Dew Point 74 °F    
Average Humidity 87    
Maximum Humidity 100    
Minimum Humidity 67    
Precipitation  
Precipitation 0.00 in - - ()
Sea Level Pressure  
Sea Level Pressure 29.95 in    
Wind  
Wind Speed 5 mph (WSW)    
Max Wind Speed 13 mph    
Max Gust Speed 21 mph    
Visibility 10 miles    
Events      
Averages and records for this station are not official NWS values.
T = Trace of Precipitation, MM = Missing Value Source: NWS Daily Summary

Daily Weather History Graph

Daily Weather History Graph

Search for Another Location

Airport or City:

Trip Planner

Search our weather history database for the weather conditions in past years. The results will help you decide how hot, cold, wet, or windy it might be!

Date:

Astronomy

Jul. 23, 2013 Rise Set
Actual Time 6:36 AM EDT 8:36 PM EDT
Civil Twilight 6:08 AM EDT 9:04 PM EDT
Nautical Twilight 5:34 AM EDT 9:37 PM EDT
Astronomical Twilight 4:58 AM EDT 10:13 PM EDT
Moon 9:11 PM EDT (7/23) 7:37 AM EDT (7/23)
Length of Visible Light 14h 55m
Length of Day
13h 59m
Full, 99% of the Moon is Illuminated
Jul 23
Full
Jul 29
Last Quarter
Aug 6
New
Aug 14
First Quarter
Aug 20
Full

Hourly Weather History & Observations

Time (EDT) Temp. Heat Index Dew Point Humidity Pressure Visibility Wind Dir Wind Speed Gust Speed Precip Events Conditions
12:15 AM 74.3 °F - 73.4 °F 97% 29.98 in 10.0 mi Calm Calm - N/A   Mostly Cloudy
12:35 AM 73.6 °F - 73.4 °F 99% 29.98 in 10.0 mi SSW 3.5 mph - N/A   Scattered Clouds
12:55 AM 73.0 °F - 73.0 °F 100% 29.98 in 10.0 mi SW 3.5 mph - N/A   Scattered Clouds
1:15 AM 72.7 °F - 72.7 °F 100% 29.97 in 10.0 mi SSW 4.6 mph - N/A   Mostly Cloudy
1:35 AM 72.5 °F - 72.5 °F 100% 29.96 in 10.0 mi SSW 5.8 mph - N/A   Scattered Clouds
1:55 AM 72.5 °F - 72.5 °F 100% 29.96 in 10.0 mi SSW 5.8 mph - N/A   Clear
2:15 AM 72.9 °F - 72.9 °F 100% 29.97 in 10.0 mi SSW 4.6 mph - N/A   Mostly Cloudy
2:35 AM 73.0 °F - 73.0 °F 100% 29.97 in 10.0 mi SW 4.6 mph - N/A   Mostly Cloudy
2:55 AM 73.4 °F - 73.4 °F 100% 29.96 in 10.0 mi SW 4.6 mph - N/A   Mostly Cloudy
3:15 AM 73.4 °F - 73.0 °F 99% 29.96 in 10.0 mi SW 4.6 mph - N/A   Mostly Cloudy
3:35 AM 73.2 °F - 73.2 °F 100% 29.96 in 10.0 mi SW 5.8 mph - N/A   Mostly Cloudy
3:55 AM 73.4 °F - 73.4 °F 100% 29.96 in 10.0 mi SW 4.6 mph - N/A   Overcast
4:15 AM 72.9 °F - 72.9 °F 100% 29.96 in 10.0 mi SW 5.8 mph - N/A   Scattered Clouds
4:35 AM 72.7 °F - 72.7 °F 100% 29.97 in 10.0 mi SW 5.8 mph - N/A   Clear
4:55 AM 72.7 °F - 72.7 °F 100% 29.97 in 10.0 mi SW 4.6 mph - N/A   Mostly Cloudy
5:15 AM 73.0 °F - 73.0 °F 100% 29.98 in 10.0 mi WSW 6.9 mph - N/A   Overcast
5:35 AM 72.7 °F - 72.7 °F 100% 29.98 in 10.0 mi SW 4.6 mph - N/A   Mostly Cloudy
5:55 AM 72.1 °F - 72.1 °F 100% 29.98 in 10.0 mi WSW 4.6 mph - N/A   Scattered Clouds
6:15 AM 71.6 °F - 71.6 °F 100% 29.99 in 10.0 mi Calm Calm - N/A   Clear
6:35 AM 71.8 °F - 71.8 °F 100% 29.99 in 10.0 mi SW 4.6 mph - N/A   Scattered Clouds
6:55 AM 72.0 °F - 72.0 °F 100% 29.99 in 10.0 mi WSW 3.5 mph - N/A   Scattered Clouds
7:15 AM 72.1 °F - 72.0 °F 99% 29.99 in 10.0 mi WSW 5.8 mph - N/A   Clear
7:35 AM 72.7 °F - 72.1 °F 98% 29.99 in 10.0 mi WSW 5.8 mph - N/A   Clear
7:55 AM 73.8 °F - 72.5 °F 96% 29.98 in 10.0 mi WSW 6.9 mph - N/A   Clear
8:15 AM 74.5 °F - 72.5 °F 94% 29.98 in 10.0 mi WSW 9.2 mph - N/A   Clear
8:35 AM 75.2 °F - 72.5 °F 91% 29.98 in 10.0 mi WSW 11.5 mph - N/A   Clear
8:55 AM 76.5 °F - 72.7 °F 88% 29.98 in 10.0 mi WSW 9.2 mph 16.1 mph N/A   Scattered Clouds
9:15 AM 77.0 °F - 72.5 °F 86% 29.99 in 10.0 mi West 11.5 mph 16.1 mph N/A   Clear
9:35 AM 77.5 °F - 72.3 °F 84% 29.99 in 10.0 mi West 6.9 mph - N/A   Clear
9:55 AM 78.8 °F - 72.7 °F 81% 29.99 in 10.0 mi West 10.4 mph 16.1 mph N/A   Clear
10:15 AM 79.7 °F - 72.9 °F 80% 29.98 in 10.0 mi West 6.9 mph 18.4 mph N/A   Clear
10:35 AM 80.6 °F 84.9 °F 72.5 °F 76% 29.98 in 10.0 mi West 11.5 mph 17.3 mph N/A   Clear
10:55 AM 81.5 °F 86.3 °F 72.7 °F 74% 29.98 in 10.0 mi West 10.4 mph - N/A   Clear
11:15 AM 82.2 °F 87.6 °F 72.9 °F 73% 29.98 in 10.0 mi West 10.4 mph - N/A   Clear
11:35 AM 82.6 °F 87.8 °F 72.5 °F 71% 29.99 in 10.0 mi West 10.4 mph - N/A   Clear
11:55 AM 84.0 °F 90.2 °F 72.9 °F 69% 29.99 in 10.0 mi West 10.4 mph 17.3 mph N/A   Scattered Clouds
12:15 PM 84.0 °F 90.5 °F 73.4 °F 70% 29.99 in 10.0 mi West 10.4 mph - N/A   Clear
12:35 PM 84.4 °F 91.3 °F 73.8 °F 70% 29.98 in 10.0 mi WNW 8.1 mph - N/A   Clear
12:55 PM 85.3 °F 92.6 °F 73.8 °F 68% 29.98 in 10.0 mi West 11.5 mph 17.3 mph N/A   Clear
1:15 PM 85.1 °F 91.8 °F 73.2 °F 67% 29.97 in 10.0 mi WNW 12.7 mph 20.7 mph N/A   Scattered Clouds
1:35 PM 86.0 °F 94.6 °F 74.7 °F 69% 29.96 in 10.0 mi WNW 10.4 mph - N/A   Scattered Clouds
1:55 PM 85.8 °F 94.6 °F 74.8 °F 70% 29.95 in 10.0 mi West 4.6 mph - N/A   Scattered Clouds
2:15 PM 84.7 °F 93.2 °F 75.2 °F 73% 29.95 in 10.0 mi WNW 6.9 mph 11.5 mph N/A   Mostly Cloudy
2:35 PM 85.6 °F 94.6 °F 75.2 °F 71% 29.94 in 10.0 mi WNW 6.9 mph - N/A   Scattered Clouds
2:55 PM 86.4 °F 95.1 °F 74.7 °F 68% 29.92 in 10.0 mi WNW 6.9 mph - N/A   Scattered Clouds
3:15 PM 87.1 °F 97.3 °F 75.7 °F 69% 29.92 in 10.0 mi WSW 8.1 mph - N/A   Scattered Clouds
3:35 PM 87.3 °F 97.2 °F 75.7 °F 68% 29.91 in 10.0 mi West 6.9 mph - N/A   Scattered Clouds
4:15 PM 86.5 °F 95.9 °F 75.4 °F 69% 29.90 in 10.0 mi WSW 8.1 mph - N/A   Mostly Cloudy
4:35 PM 86.4 °F 97.4 °F 76.6 °F 73% 29.90 in 10.0 mi WSW 4.6 mph - N/A   Scattered Clouds
4:55 PM 86.5 °F 98.8 °F 77.7 °F 75% 29.89 in 10.0 mi WSW 4.6 mph - N/A   Scattered Clouds
5:15 PM 86.5 °F 98.3 °F 77.4 °F 74% 29.89 in 10.0 mi WSW 8.1 mph - N/A   Clear
5:35 PM 85.5 °F 96.3 °F 77.2 °F 76% 29.89 in 10.0 mi WSW 8.1 mph - N/A   Scattered Clouds
5:55 PM 85.8 °F 95.5 °F 75.7 °F 72% 29.88 in 10.0 mi WSW 10.4 mph - N/A   Clear
6:15 PM 84.4 °F 93.1 °F 75.7 °F 75% 29.88 in 10.0 mi West 5.8 mph - N/A   Clear
6:35 PM 85.1 °F 94.5 °F 76.1 °F 74% 29.88 in 10.0 mi WSW 3.5 mph - N/A   Clear
6:55 PM 83.7 °F 92.4 °F 76.3 °F 78% 29.88 in 10.0 mi WSW 5.8 mph - N/A   Clear
7:15 PM 83.3 °F 92.1 °F 76.5 °F 80% 29.88 in 10.0 mi SW 3.5 mph - N/A   Clear
7:35 PM 82.4 °F 90.3 °F 76.5 °F 82% 29.88 in 10.0 mi SW 4.6 mph - N/A   Clear
7:55 PM 81.5 °F 88.7 °F 76.6 °F 85% 29.88 in 10.0 mi SW 4.6 mph - N/A   Clear
8:15 PM 80.8 °F 87.1 °F 76.3 °F 86% 29.89 in 10.0 mi SSW 4.6 mph - N/A   Clear
8:35 PM 79.7 °F - 76.3 °F 89% 29.89 in 10.0 mi SW 4.6 mph - N/A   Clear
8:55 PM 78.4 °F - 76.1 °F 92% 29.91 in 10.0 mi SW 3.5 mph - N/A   Clear
9:15 PM 78.8 °F - 76.1 °F 91% 29.91 in 10.0 mi Calm Calm - N/A   Clear
9:35 PM 78.3 °F - 76.1 °F 93% 29.91 in 10.0 mi Calm Calm - N/A   Clear
9:55 PM 76.8 °F - 76.3 °F 98% 29.91 in 7.0 mi Calm Calm - N/A   Clear
10:15 PM 77.5 °F - 75.9 °F 95% 29.91 in 10.0 mi Calm Calm - N/A   Scattered Clouds
10:35 PM 76.6 °F - 76.1 °F 98% 29.91 in 7.0 mi WSW 3.5 mph - N/A   Clear
10:55 PM 75.7 °F - 75.7 °F 100% 29.91 in 7.0 mi WSW 3.5 mph - N/A   Clear
11:15 PM 75.7 °F - 75.6 °F 99% 29.90 in 7.0 mi Calm Calm - N/A   Clear
11:35 PM 75.4 °F - 75.4 °F 100% 29.90 in 7.0 mi Calm Calm - N/A   Clear
11:55 PM 75.2 °F - 75.2 °F 100% 29.90 in 7.0 mi SW 3.5 mph - N/A   Clear